Tracking 31027 objects as of 19-Jul-2025
HD Live streaming from Space Station
objects crossing your sky now

DELTA 1 DEB

Track DELTA 1 DEB now!
10-day predictions


NORAD ID: 26838
Int'l Code: 1975-052KS
Perigee: 1,053.2 km
Apogee: 1,529.1 km
Inclination: 99.2 °
Period: 111.2 minutes
Semi major axis: 7662 km
RCS: 0.0136 m2 (small)
Launch date: June 12, 1975
Source: United States (US)
Launch site: AIR FORCE WESTERN TEST RANGE (AFWTR)

Note: This is SATELLITE DEBRIS
Your satellite tracking list
THORAD DELTA 1 DEB
Track 1 satellite(s)




NASA's NSSDC Master Catalog

Two Line Element Set (TLE):
1 26838U 75052KS  25199.40810403  .00000233  00000-0  76731-3 0  9997
2 26838  99.2313   7.8091 0310601 113.6066 282.1505 12.94426650468937
Source of the keplerian elements: AFSPC